SCP
0 0 0 0 0 0 0 0 0 0 0 0 0 0 0 0 0 0 0 0 0 0
0 0 0 0 0 0 0 0 0 0 0 0 0 0 0 0 0 0 0 0 0 0
0 0 0 0 0 0 0 0 0 0 0 0 0 0 0 0 0 0 0 0 0 0
0 0 0 0 0 0 0 0 0 0 0 0 0 0 0 0 0 0 0 0 0 0
0 0 0 0 0 0 0 0 0 0 0 0 0 0 0 0 0 0 0 0 0 0
0 0 0 0 0 0 0 0 0 0 0 0 0 0 0 0 0 0 0 0 0 0
0 0 0 0 0 0 0 0 0 0 0 0 0 0 0 0 0 0 0 0 0 0
0 0 0 0 0 0 0 0 0 0 0 0 0 0 0 0 0 0 0 0 0 0
0 0 0 0 0 0 0 0 0 0 0 0 0 0 0 0 0 0 0 0 0 0
0 0 0 0 0 0 0 0 0 0 0 0 0 0 0 0 0 0 0 0 0 0
0 0 0 0 0 0 0 0 0 0 0 0 0 0 0 0 0 0 0 0 0 0
0 0 0 0 0 0 0 0 0 0 0 0 0 0 0 0 0 0 0 0 0 0
0 0 0 0 0 0 0 0 0 0 0 0 0 0 0 0 0 0 0 0 0 0
0 0 0 0 0 0 0 0 0 0 0 0 0 0 0 0 0 0 0 0 0 0
Wind_Speed_500mb
56 51 50 47 45 42 40 37 37 37 35 32 31 30 30 29 28 29 30 32 33 34
62 58 53 48 48 46 42 40 40 39 37 34 33 32 32 31 29 32 31 32 34 35
67 60 55 52 52 49 44 43 43 42 40 37 35 34 35 33 30 33 32 33 35 35
73 66 60 57 54 52 49 46 47 44 43 41 38 36 37 35 33 34 33 33 36 35
72 71 68 63 58 53 53 50 48 47 47 44 41 38 39 37 36 36 35 33 36 34
69 71 69 66 61 57 55 54 53 52 51 47 43 42 41 40 38 38 36 35 36 34
61 65 67 65 63 59 57 58 57 55 52 50 47 46 44 42 40 39 38 36 36 34
52 57 64 67 64 61 61 60 60 59 57 53 53 49 45 43 42 41 39 38 36 34
46 51 58 62 64 65 63 62 63 64 62 59 56 50 47 46 45 43 41 38 36 35
36 45 51 57 63 65 65 64 66 66 65 64 58 52 50 49 49 46 43 40 36 35
35 38 43 50 58 61 63 66 66 66 66 65 61 55 53 51 52 50 46 42 37 36
31 36 41 47 49 53 60 63 65 66 64 67 63 57 55 53 55 54 49 43 40 37
30 35 41 42 45 48 54 58 59 62 63 62 62 57 57 56 58 56 52 46 43 40
35 36 38 41 44 47 51 56 59 61 60 62 62 58 59 58 62 58 53 50 47 41
Wind_Direction_500mb
247 249 252 252 254 257 258 260 259 264 267 269 273 278 284 290 294 295 300 302 301 297
245 247 250 251 252 253 256 256 257 260 263 266 269 273 278 286 290 290 296 299 299 296
246 247 250 250 250 252 254 255 255 258 261 262 266 269 274 281 285 287 293 295 297 297
244 245 247 248 249 250 251 253 254 256 258 259 262 265 269 277 281 285 289 292 295 297
244 243 246 249 250 250 250 251 254 254 256 257 260 264 268 274 279 282 285 289 291 295
245 243 244 249 252 252 251 250 250 252 254 257 258 262 266 271 275 280 283 286 289 292
247 246 246 249 252 254 255 252 250 252 254 255 255 258 262 268 273 277 281 283 286 288
248 248 248 249 251 254 254 254 253 252 253 254 254 256 260 264 269 273 278 280 283 285
251 251 249 249 252 253 256 256 254 253 253 254 255 257 258 260 265 270 273 276 278 280
253 255 254 253 251 252 254 256 255 254 254 255 257 256 256 258 263 266 270 273 275 276
265 261 257 255 255 254 255 256 256 256 256 256 256 256 255 256 259 264 268 270 272 273
274 269 263 259 258 257 256 256 256 258 257 257 257 255 255 254 256 261 265 267 267 269
298 285 275 270 263 259 256 257 256 256 256 257 257 253 253 253 255 258 262 263 263 264
310 301 290 278 266 262 259 256 253 255 254 254 253 251 250 251 254 258 261 261 261 261
Wind_Speed_850mb
56 51 50 47 45 42 40 37 37 37 35 32 31 30 30 29 28 29 30 32 33 34
62 58 53 48 48 46 42 40 40 39 37 34 33 32 32 31 29 32 31 32 34 35
67 60 55 52 52 49 44 43 43 42 40 37 35 34 35 33 30 33 32 33 35 35
73 66 60 57 54 52 49 46 47 44 43 41 38 36 37 35 33 34 33 33 36 35
72 71 68 63 58 53 53 50 48 47 47 44 41 38 39 37 36 36 35 33 36 34
69 71 69 66 61 57 55 54 53 52 51 47 43 42 41 40 38 38 36 35 36 34
61 65 67 65 63 59 57 58 57 55 52 50 47 46 44 42 40 39 38 36 36 34
52 57 64 67 64 61 61 60 60 59 57 53 53 49 45 43 42 41 39 38 36 34
46 51 58 62 64 65 63 62 63 64 62 59 56 50 47 46 45 43 41 38 36 35
36 45 51 57 63 65 65 64 66 66 65 64 58 52 50 49 49 46 43 40 36 35
35 38 43 50 58 61 63 66 66 66 66 65 61 55 53 51 52 50 46 42 37 36
31 36 41 47 49 53 60 63 65 66 64 67 63 57 55 53 55 54 49 43 40 37
30 35 41 42 45 48 54 58 59 62 63 62 62 57 57 56 58 56 52 46 43 40
35 36 38 41 44 47 51 56 59 61 60 62 62 58 59 58 62 58 53 50 47 41
Wind_Direction_850mb
247 249 252 252 254 257 258 260 259 264 267 269 273 278 284 290 294 295 300 302 301 297
245 247 250 251 252 253 256 256 257 260 263 266 269 273 278 286 290 290 296 299 299 296
246 247 250 250 250 252 254 255 255 258 261 262 266 269 274 281 285 287 293 295 297 297
244 245 247 248 249 250 251 253 254 256 258 259 262 265 269 277 281 285 289 292 295 297
244 243 246 249 250 250 250 251 254 254 256 257 260 264 268 274 279 282 285 289 291 295
245 243 244 249 252 252 251 250 250 252 254 257 258 262 266 271 275 280 283 286 289 292
247 246 246 249 252 254 255 252 250 252 254 255 255 258 262 268 273 277 281 283 286 288
248 248 248 249 251 254 254 254 253 252 253 254 254 256 260 264 269 273 278 280 283 285
251 251 249 249 252 253 256 256 254 253 253 254 255 257 258 260 265 270 273 276 278 280
253 255 254 253 251 252 254 256 255 254 254 255 257 256 256 258 263 266 270 273 275 276
265 261 257 255 255 254 255 256 256 256 256 256 256 256 255 256 259 264 268 270 272 273
274 269 263 259 258 257 256 256 256 258 257 257 257 255 255 254 256 261 265 267 267 269
298 285 275 270 263 259 256 257 256 256 256 257 257 253 253 253 255 258 262 263 263 264
310 301 290 278 266 262 259 256 253 255 254 254 253 251 250 251 254 258 261 261 261 261